www.pogodaiklimat.ru

Погода и климат >> Архив погоды >> Венгрия >> Мишкольц


ПОГОДА в Мишкольце

  • Прогноз погоды в Мишкольце
  • Монитор погоды в Мишкольце

АРХИВ ПОГОДЫ в Мишкольце

Время (UTC), дата Ветер
(напр.,м/с)
 
Видим.   Явления Облачность Т
(С)
Тd
(С)
f
(%)
Тe
(С)
Тes
(С)
Комфортность P
(гПа)
Po
(гПа)
Тmin
(С)
Tmax
(С)
R
(мм)
R24
(мм)
S
(см)
10 13.09 СВ 1 н/о н/о +24.3 +12.3 47 +26 +26 жарко 1028.2 1009.2
11 13.09 Ю 1 н/о н/о +24.4 +12.4 47 +26 +26 жарко 1027.8 1008.8
12 13.09 штиль 0 н/о н/о +24.3 +12.0 46 +26 +26 жарко 1027.0 1008.0
13 13.09 С 1 н/о н/о +25.8 +12.3 43 +27 +27 жарко 1026.6 1007.7
14 13.09 З 2 н/о н/о +26.4 +13.2 44 +28 +28 жарко 1026.2 1007.4
15 13.09 З 2 н/о н/о +26.0 +12.1 42 +27 +27 жарко 1026.0 1007.1
16 13.09 З 2 н/о н/о +24.5 +12.1 46 +26 +26 жарко 1026.0 1007.0
17 13.09 Ю 1 н/о н/о +21.0 +13.2 61 +25 +25 комфорт 1026.2 1007.0
18 13.09 штиль 0 н/о н/о +17.8 +13.5 76 +18 +18 1026.7 1007.3 +27.0
19 13.09 штиль 0 н/о н/о +17.0 +13.5 80 +17 +17 1026.9 1007.4
20 13.09 штиль 0 н/о н/о +16.4 +13.3 82 +16 +16 1027.0 1007.5
21 13.09 штиль 0 н/о н/о +17.1 +13.8 81 +17 +17 1027.6 1008.1
22 13.09 штиль 0 н/о н/о +17.5 +13.6 78 +17 +17 1027.2 1007.8
23 13.09 ЮЗ 1 н/о н/о +17.8 +13.7 77 +19 +19 1027.6 1008.2
00 14.09 ЮЗ 1 н/о н/о +16.6 +13.5 82 +17 +17 1027.8 1008.3
01 14.09 штиль 0 н/о н/о +16.6 +13.5 82 +16 +16 1027.7 1008.2
02 14.09 ЮЗ 1 н/о н/о +16.0 +13.5 85 +17 +17 1027.6 1008.1
03 14.09 штиль 0 н/о н/о +16.1 +13.6 85 +16 +16 1027.6 1008.1
04 14.09 ЮЗ 1 н/о н/о +16.0 +13.7 86 +17 +17 1027.8 1008.3
05 14.09 штиль 0 н/о н/о +15.0 +13.4 90 +15 +15 1028.5 1008.9
06 14.09 С 1 н/о н/о +17.9 +13.8 77 +19 +19 1029.0 1009.6 +15.0
07 14.09 С 2 н/о н/о +18.4 +13.5 73 +19 +19 1029.5 1010.1
08 14.09 СВ 2 н/о н/о +19.5 +13.2 67 +22 +22 комфорт 1029.7 1010.4
09 14.09 В 2 н/о н/о +20.4 +12.4 60 +23 +23 комфорт 1029.9 1010.6
10 14.09 СВ 2 н/о н/о +20.5 +11.2 55 +23 +23 комфорт 1029.7 1010.4
11 14.09 СВ 2 н/о н/о +21.4 +11.4 53 +23 +23 комфорт 1029.3 1010.1
12 14.09 С 3
{7}
н/о н/о +22.0 +8.2 41 +23 +23 комфорт 1028.9 1009.7
13 14.09 СВ 3 н/о н/о +22.5 +7.9 39 +24 +24 комфорт 1028.6 1009.5
14 14.09 СВ 3 н/о н/о +22.3 +6.5 36 +23 +23 комфорт 1028.2 1009.1
15 14.09 В 3
{7}
н/о н/о +20.8 +6.0 38 +22 +22 комфорт 1028.1 1008.9
16 14.09 СВ 3 н/о н/о +19.9 +5.9 40 +21 +21 комфорт 1028.2 1008.9
17 14.09 С 2 н/о н/о +18.2 +6.4 46 +19 +19 1028.4 1009.0
18 14.09 штиль 0 н/о н/о +16.6 +7.0 53 +17 +17 1029.3 1009.8 +22.6
19 14.09 СЗ 1 н/о н/о +15.7 +7.0 56 +16 +16 1029.9 1010.3
20 14.09 З 1 н/о н/о +14.4 +7.0 61 +15 +15 1030.4 1010.7
21 14.09 З 1 н/о н/о +12.4 +7.7 73 +13 +13 1030.4 1010.6
22 14.09 З 1 н/о н/о +11.5 +7.2 75 +11 +11 1030.5 1010.6
23 14.09 штиль 0 н/о н/о +11.0 +7.5 79 +10 +10 1030.3 1010.4
00 15.09 штиль 0 н/о н/о +10.0 +7.2 83 +9 +9 1030.2 1010.2
01 15.09 штиль 0 н/о н/о +9.7 +7.0 83 +9 +9 1030.0 1010.0
02 15.09 штиль 0 н/о н/о +9.1 +6.9 86 +8 +8 1029.4 1009.4
03 15.09 ЮЗ 1 н/о н/о +8.8 +6.6 86 +8 +8 1028.7 1008.6
04 15.09 ЮЗ 1 н/о н/о +8.8 +6.4 85 +8 +8 1028.7 1008.6
05 15.09 штиль 0 н/о н/о +8.7 +6.5 86 +8 +8 1028.8 1008.7
06 15.09 ЮЗ 1 н/о н/о +11.8 +7.3 74 +12 +12 1028.6 1008.8 +8.6
07 15.09 штиль 0 н/о н/о +14.1 +8.1 67 +14 +14 1028.4 1008.7
08 15.09 С 1 н/о н/о +17.4 +6.6 49 +18 +18 1027.7 1008.3
09 15.09 ЮВ 1 н/о н/о +18.8 +7.9 49 +20 +20 1027.0 1007.7
10 15.09 Ю 2 н/о н/о +20.1 +8.1 46 +22 +22 комфорт 1026.7 1007.4
11 15.09 СВ 1 н/о н/о +21.0 +8.0 43 +23 +23 комфорт 1025.9 1006.7
12 15.09 З 1 н/о н/о +22.8 +8.1 39 +24 +24 комфорт 1024.7 1005.7
13 15.09 Ю 1 н/о н/о +23.3 +6.1 33 +24 +24 комфорт 1024.1 1005.1
14 15.09 ЮЗ 2 н/о н/о +23.5 +5.9 32 +24 +24 комфорт 1023.3 1004.3
15 15.09 ЮЗ 1 н/о н/о +22.8 +7.0 36 +24 +24 комфорт 1022.3 1003.3
16 15.09 Ю 1 н/о н/о +21.7 +6.8 38 +22 +22 комфорт 1022.0 1002.9
17 15.09 Ю 1 н/о н/о +17.8 +8.4 54 +19 +19 1021.8 1002.5
18 15.09 ЮЗ 1 н/о н/о +15.3 +9.4 68 +16 +16 1021.8 1002.3 +24.0
19 15.09 штиль 0 н/о н/о +14.1 +9.3 73 +14 +14 1021.9 1002.3
20 15.09 штиль 0 н/о н/о +12.9 +9.2 78 +12 +12 1021.7 1002.1
21 15.09 штиль 0 н/о н/о +12.2 +9.4 83 +12 +12 1021.4 1001.7
22 15.09 штиль 0 н/о н/о +11.6 +9.3 86 +11 +11 1021.1 1001.4
23 15.09 штиль 0 н/о н/о +11.1 +9.4 89 +10 +10 1020.8 1001.1
00 16.09 штиль 0 н/о н/о +10.4 +9.2 92 +10 +10 1020.8 1001.0
01 16.09 штиль 0 н/о н/о +10.3 +9.1 92 +10 +10 1020.5 1000.7
02 16.09 штиль 0 н/о н/о +10.3 +9.4 94 +9 +9 1020.3 1000.5
03 16.09 штиль 0 н/о н/о +10.0 +9.2 95 +9 +9 1019.7 999.9
04 16.09 штиль 0 н/о н/о +9.3 +8.4 94 +8 +8 1019.6 999.8
05 16.09 штиль 0 н/о н/о +9.3 +8.7 96 +8 +8 1019.6 999.8
06 16.09 штиль 0 н/о н/о +12.5 +10.6 88 +12 +12 1019.2 999.6 +9.1
07 16.09 СВ 1 н/о н/о +14.7 +10.9 78 +15 +15 1019.0 999.5
08 16.09 В 1 н/о н/о +17.7 +11.7 68 +19 +19 1019.0 999.7
09 16.09 В 2 н/о н/о +20.8 +12.5 59 +24 +24 комфорт 1018.3 999.3
10 16.09 В 1 н/о н/о +22.0 +12.8 56 +25 +25 комфорт 1018.1 999.1
11 16.09 В 2 н/о н/о +23.6 +14.0 55 +26 +26 жарко 1016.9 998.1
12 16.09 ЮВ 1 н/о н/о +26.0 +15.4 52 +29 +29 душно 1015.5 996.8
13 16.09 З 2 н/о н/о +27.5 +13.8 43 +30 +30 жарко 1014.7 996.1
14 16.09 З 2 н/о н/о +27.9 +12.7 39 +29 +29 жарко 1013.9 995.4
15 16.09 З 2 н/о н/о +26.1 +11.5 40 +27 +27 жарко 1013.5 994.9
16 16.09 штиль 0 н/о н/о +24.4 +12.4 47 +26 +26 жарко 1013.6 994.9
17 16.09 З 1 н/о н/о +22.2 +13.6 58 +25 +25 комфорт 1013.5 994.6
18 16.09 З 2 н/о н/о +22.4 +12.6 54 +25 +25 комфорт 1013.6 994.7 +28.2
19 16.09 З 3 н/о н/о +22.3 +12.3 53 +25 +25 комфорт 1013.7 994.8
20 16.09 З 3 н/о н/о +22.0 +11.4 51 +24 +24 комфорт 1013.6 994.7
21 16.09 З 3 н/о н/о +21.5 +10.0 48 +23 +23 комфорт 1013.8 994.9
22 16.09 З 2 н/о н/о +20.7 +10.2 51 +23 +23 комфорт 1013.8 994.8
23 16.09 З 1 н/о н/о +19.5 +11.0 58 +22 +22 комфорт 1013.7 994.7
00 17.09 штиль 0 н/о н/о +19.2 +11.3 60 +20 +20 1013.6 994.5
01 17.09 штиль 0 н/о н/о +18.1 +12.5 70 +18 +18 1013.3 994.2
02 17.09 штиль 0 н/о н/о +17.4 +12.7 74 +17 +17 1013.1 993.9
03 17.09 штиль 0 н/о н/о +16.8 +13.5 81 +17 +17 1012.7 993.5
04 17.09 штиль 0 н/о н/о +16.4 +13.5 83 +16 +16 1012.8 993.6
05 17.09 штиль 0 н/о н/о +16.1 +14.5 90 +16 +16 1013.0 993.7
06 17.09 штиль 0 н/о н/о +16.5 +14.5 88 +16 +16 1013.0 993.8 +16.0 0.1
07 17.09 СВ 2 н/о н/о +17.3 +15.1 87 +18 +18 1013.0 993.8
08 17.09 СВ 2 н/о н/о +18.6 +14.7 78 +20 +20 1013.1 994.0
09 17.09 СВ 2 н/о н/о +19.2 +14.0 72 +21 +21 комфорт 1013.4 994.3
10 17.09 С 1 н/о н/о +20.9 +14.5 67 +25 +25 комфорт 1012.9 994.0
11 17.09 З 1 н/о н/о +22.4 +14.5 61 +26 +26 жарко 1012.1 993.3
12 17.09 З 3
{8}
н/о н/о +24.7 +12.6 47 +27 +27 жарко 1011.4 992.7
13 17.09 З 4 н/о н/о +24.6 +10.8 42 +26 +26 жарко 1011.0 992.3
14 17.09 З 6 н/о н/о +23.1 +8.8 40 +24 +24 комфорт 1010.8 992.0
15 17.09 З 5
{10}
н/о н/о +22.5 +9.0 42 +24 +24 комфорт 1010.2 991.4
16 17.09 З 4 н/о н/о +21.5 +9.4 46 +23 +23 комфорт 1010.3 991.4
17 17.09 З 3 н/о н/о +19.8 +9.7 52 +21 +21 комфорт 1010.4 991.4
18 17.09 ЮЗ 1 н/о н/о +17.2 +10.6 65 +18 +18 1011.0 991.9 +25.3
19 17.09 ЮЗ 1 н/о н/о +16.8 +10.6 67 +18 +18 1011.2 992.0
20 17.09 ЮЗ 1 н/о н/о +16.5 +10.6 68 +17 +17 1011.4 992.2
21 17.09 З 2 н/о н/о +16.5 +9.2 62 +17 +17 1011.6 992.4
22 17.09 З 3 н/о н/о +16.8 +8.0 56 +17 +17 1011.6 992.4
23 17.09 З 2 н/о н/о +16.2 +6.9 54 +16 +16 1011.9 992.7
00 18.09 З 2
{7}
н/о н/о +15.7 +5.9 52 +16 +16 1012.3 993.0
01 18.09 З 3 н/о н/о +15.4 +5.3 51 +15 +15 1012.6 993.3
02 18.09 З 3 н/о н/о +14.5 +3.9 49 +14 +14 1013.0 993.6
03 18.09 С 1
{7}
н/о н/о +12.5 +4.2 57 +13 +13 1014.5 995.0
04 18.09 З 1 н/о н/о +10.8 +5.1 68 +11 +11 1015.5 995.8
05 18.09 СЗ 2 н/о н/о +11.0 +2.6 56 +10 +10 1016.5 996.8
06 18.09 З 2 н/о н/о +12.5 +2.1 49 +12 +12 1017.6 998.0 +9.8
07 18.09 З 4 н/о н/о +13.3 +1.9 46 +12 +12 1018.2 998.7
08 18.09 З 4 н/о н/о +14.6 +1.5 41 +14 +14 1019.0 999.5
09 18.09 СЗ 4
{9}
н/о н/о +16.0 +1.7 38 +15 +15 1019.6 1000.2
10 18.09 З 4 н/о н/о +16.5 +1.4 36 +16 +16 1019.7 1000.3
11 18.09 СЗ 3 н/о н/о +17.6 +1.6 34 +18 +18 1019.8 1000.5
12 18.09 З 4
{9}
н/о н/о +18.3 +1.8 33 +18 +18 1019.5 1000.3
13 18.09 З 2 н/о н/о +18.7 +2.1 33 +19 +19 1019.6 1000.4
14 18.09 З 2 н/о н/о +18.7 +2.1 33 +19 +19 1019.6 1000.4
15 18.09 З 2
{7}
н/о н/о +18.1 +2.0 34 +19 +19 1019.8 1000.5
16 18.09 З 2 н/о н/о +16.9 +2.1 37 +17 +17 1019.9 1000.6
17 18.09 Ю 1 н/о н/о +13.8 +3.8 51 +14 +14 1020.2 1000.7
18 18.09 ЮЗ 1 н/о н/о +11.5 +4.0 60 +12 +12 1021.4 1001.7 +19.0
19 18.09 штиль 0 н/о н/о +10.9 +4.1 63 +11 +11 1021.8 1002.0
20 18.09 штиль 0 н/о н/о +9.6 +4.2 69 +9 +9 1022.6 1002.7
21 18.09 штиль 0 н/о н/о +8.2 +4.0 75 +8 +8 1023.0 1003.0
22 18.09 штиль 0 н/о н/о +7.5 +3.7 77 +7 +7 1023.1 1003.1
23 18.09 штиль 0 н/о н/о +7.1 +3.3 77 +6 +6 1023.1 1003.0
00 19.09 штиль 0 н/о н/о +6.4 +3.2 80 +6 +6 1023.1 1003.0
01 19.09 штиль 0 н/о н/о +6.3 +3.1 80 +5 +5 1023.0 1002.9
02 19.09 Ю 1 н/о н/о +6.4 +3.7 83 +5 +5 1022.9 1002.8
03 19.09 штиль 0 н/о н/о +5.8 +3.0 82 +5 +5 1022.7 1002.6
04 19.09 штиль 0 н/о н/о +5.0 +2.9 86 +4 +4 1023.1 1002.9
05 19.09 штиль 0 н/о н/о +4.6 +2.9 89 +4 +4 1023.3 1003.1
06 19.09 С 1 н/о н/о +6.9 +3.3 78 +6 +6 1024.1 1004.0 +4.5
07 19.09 штиль 0 н/о н/о +8.9 +3.7 70 +8 +8 1024.2 1004.2
08 19.09 СЗ 3 н/о н/о +12.8 +4.3 56 +12 +12 1024.3 1004.6
09 19.09 СЗ 2 н/о н/о +15.3 +3.8 46 +15 +15 1024.1 1004.6
10 19.09 С 2 н/о н/о +15.9 +2.7 41 +16 +16 1024.0 1004.5
11 19.09 СВ 2 н/о н/о +16.9 +3.2 40 +17 +17 1023.5 1004.1
12 19.09 СЗ 2 н/о н/о +17.4 +1.0 33 +18 +18 1023.1 1003.7
13 19.09 С 2 н/о н/о +16.3 +0.4 34 +17 +17 1023.0 1003.6
14 19.09 С 1 н/о н/о +16.2 +0.7 35 +17 +17 1022.8 1003.4
15 19.09 ЮВ 1 н/о н/о +15.7 +1.8 39 +17 +17 1022.6 1003.1
16 19.09 З 1 н/о н/о +15.2 +2.4 42 +16 +16 1022.7 1003.2
17 19.09 штиль 0 н/о н/о +12.7 +4.4 57 +12 +12 1022.9 1003.2
18 19.09 ЮЗ 1 н/о н/о +10.1 +4.5 68 +10 +10 1024.5 1004.6 +18.0
19 19.09 штиль 0 н/о н/о +9.3 +4.5 72 +9 +9 1025.0 1005.1
20 19.09 ЮЗ 1 н/о н/о +8.3 +4.5 77 +8 +8 1025.5 1005.5
21 19.09 штиль 0 н/о н/о +7.1 +4.2 82 +6 +6 1026.1 1006.0
22 19.09 штиль 0 н/о н/о +6.6 +4.1 84 +6 +6 1026.3 1006.1
23 19.09 штиль 0 н/о н/о +6.0 +4.0 87 +5 +5 1026.6 1006.4
00 20.09 штиль 0 н/о н/о +5.5 +3.7 88 +4 +4 1026.7 1006.5
01 20.09 штиль 0 н/о н/о +5.1 +3.4 89 +4 +4 1026.8 1006.5
02 20.09 штиль 0 н/о н/о +4.4 +3.1 91 +3 +3 1027.0 1006.7
03 20.09 штиль 0 н/о н/о +4.1 +2.6 90 +3 +3 1027.1 1006.7
04 20.09 штиль 0 н/о н/о +4.1 +2.6 90 +3 +3 1027.0 1006.6
05 20.09 штиль 0 н/о н/о +4.1 +2.5 89 +3 +3 1027.1 1006.7
06 20.09 штиль 0 н/о н/о +5.7 +3.2 84 +5 +5 1027.2 1007.0 +4.0
07 20.09 штиль 0 н/о н/о +9.6 +4.0 68 +9 +9 1027.1 1007.1
08 20.09 С 1 н/о н/о +13.4 +2.0 46 +14 +14 1027.1 1007.4
09 20.09 СВ 1 н/о н/о +14.4 +1.7 42 +15 +15 1027.1 1007.5
10 20.09 СЗ 3 н/о н/о +15.7 +1.8 39 +15 +15 1026.8 1007.3
11 20.09 З 2 н/о н/о +16.0 +1.0 36 +16 +16 1026.5 1007.0

 

Местоположение метеостанции Мишкольц (Венгрия): широта 48.10 долгота 20.77 высота над уровнем моря 236 м.

В архиве по умолчанию представлена погода в Мишкольце за последнюю неделю. Архивные данные за месяц целиком и за предыдущие месяцы, начиная с января 2011 года, Вы можете получить, выбрав интересующий диапазон дат из раскрывающегося списка и нажав кнопку "Ввод!".


*Определитесь, кто Вы:
робот инопланетянин человек

Внимание! Время в таблицах - всемирное. Для получения местного времени необходимо прибавить поправку, которая равна 1 ч.

Смотрите также архив погоды в соседних городах и на ближайших метеорологических станциях:

Погода в Эгере (Венгрия) (37 км)
Погода в Йосвафо (Венгрия) (46 км)
Погода в Порозло (Венгрия) (51 км)
Погода на Кекеше (Венгрия) (61 км)
Погода в Кошице (Словакия) (72 км)
Погода на Станции Kojsovska Hola (Словакия) (77 км)
Погода в Лученце (Словакия) (81 км)
Погода в Ньиредьхазе (Венгрия) (84 км)
Погода в Дебрецене (Венгрия) (93 км)
Погода в Сечене (Польша) (93 км)

Пояснения к столбцам:

Ветер - указаны скорость ветра в м/с - средняя за 10 мин, порывы в срок и между сроками (в фигурных скобках) и направление, откуда дует ветер: С - северный, СВ - северо-восточный, В - восточный, ЮВ - юго-восточный, Ю - южный, ЮЗ - юго-западный, З - западный, СЗ - северо-западный.
Видимость - горизонтальная дальность видимости в метрах или километрах. При видимости от 1 до 10 км при отсутствии осадков обычно наблюдается дымка, при ухудшении видимости до 1 км и менее - туман. В сухую погоду видимость может ухудшаться дымом, пылью или мглою.
Явления - указаны атмосферные явления, наблюдавшиеся в срок или в последний час перед сроком; фигурными скобками обозначены явления, наблюдавшиеся между сроками (за 1-3 часа до срока); квадратными скобками обозначены град или гололедные отложения с указанием их диаметра в мм.
Облачность - указаны через наклонную черту общая и нижняя облачность в баллах и высота нижней границы облаков в метрах; квадратными скобками обозначены формы облаков: Ci - перистые, Cs - перисто-слоистые, Cc - перисто-кучевые, Ac - высококучевые, As - высокослоистые, Sc - слоисто-кучевые, Ns - слоисто-дождевые, Cu - кучевые, Cb - кучево-дождевые. Подробнее классификацию облаков см. в Атласе облаков (PDF).
T - Температура воздуха - температура, измеренная на высоте 2 м над землей.
Td - Температура точки росы - температура, при понижении до которой содержащийся в воздухе водяной пар достигнет насыщения.
f - Относительная влажность воздуха - влажноcть воздуха, измеренная на высоте 2 м над землей.
Te - Эффективная температура - температура, которую ощущает одетый по сезону человек в тени. Характеристика душности погоды. При расчете учитывается влияние влажности воздуха и скорости ветра на теплоощущения человека.
Tes - Эффективная температура на солнце - температура, которую ощущает человек, с поправкой на солнечный нагрев. Характеристика знойности погоды. Зависит от высоты солнца над горизонтом, облачности и скорости ветра. Ночью, в пасмурную погоду, а также при ветре 12 м/с и более поправка равна нулю.
P - Атмосферное давление - приведенное к уровню моря атмосферное давление.
Po - Атмосферное давление - измеренное на уровне метеостанции атмосферное давление.
Tmin - Минимальная температура - минимум температуры воздуха на высоте 2 м над землей.
Tmax - Максимальная температура - максимум температуры воздуха на высоте 2 м над землей.
R - Количество осадков - Количество выпавших осадков за период времени, мм. При наведении курсора мыши на число - период времени, за который выпало указанное количество осадков.
R24 - Количество осадков - Количество выпавших осадков за 24 часа, мм.
S - Снежный покров - Высота снежного покрова, см. При наведении курсора мыши на число - состояние снежного покрова и степень покрытия местности в баллах.